Location: Newark
(48.0000°N, 67.0000°E)
Time: 04:21:22
(UTC+00:00)

A-11 Canister half - Pass Details

Date: 20 February 2020
Orbit: 1517 x 1683 km, 47.2° (Epoch: 04 April)

Event Time Altitude Azimuth Distance (km) Brightness Sun altitude
Rises 14:39:42 0° 265° (W) 4,872 13.4 -17.1°
Reaches altitude 10° 14:42:52 10° 266° (W) 3,866 12.4 -17.7°
Maximum altitude 14:52:45 87° 179° (S) 1,596 9.0 -19.3°
Enters shadow 14:58:22 29° 92° (E) 2,557 9.5 -20.2°
